This demonstration page uses our WeatherBlox Daily Observations layout. Learn more.

Left ArrowRight Arrow

34.02893, -84.19858

Hourly Observations for August 7, 2020

Temp ( °F °C ) Dew Point ( °F °C ) Humidity (%) Winds ( mph kmh ) Pressure ( in mb ) Visibility ( mi km ) Precip ( " mm )
12:53 am 00:53 Partly Cloudy 76 24.4 71 21.7 85 85 NNE 3 6 29.98 1015 10 16 0.00 0.00
1:53 am 01:53 Clear 75 23.9 69 20.6 82 82 Calm 29.98 1015 10 16 0.00 0.00
2:53 am 02:53 Mostly Clear 74 23.3 69 20.6 85 85 VRB 3 6 29.99 1016 10 16 0.00 0.00
3:53 am 03:53 Mostly Cloudy 73 22.8 70 21.1 90 90 NNE 5 7 29.99 1016 10 16 0.00 0.00
4:53 am 04:53 Mostly Clear 73 22.8 70 21.1 90 90 Calm 29.99 1016 10 16 0.00 0.00
5:53 am 05:53 Partly Cloudy 72 22.2 70 21.1 94 94 Calm 30.01 1016 10 16 0.00 0.00
6:53 am 06:53 Cloudy 72 22.2 70 21.1 94 94 Calm 30.02 1017 10 16 0.00 0.00
7:53 am 07:53 Mostly Sunny 73 22.8 70 21.1 90 90 Calm 30.04 1017 10 16 0.00 0.00
8:53 am 08:53 Mostly Cloudy 74 23.3 71 21.7 91 91 Calm 30.05 1018 10 16 0.00 0.00
9:41 am 09:41 Mostly Cloudy 75 23.9 71 21.7 88 88 Calm 30.06 1018 10 16 0.00 0.00
9:53 am 09:53 Partly Cloudy 75 23.9 71 21.7 88 88 SE 5 7 30.06 1018 10 16 0.00 0.00
10:53 am 10:53 Mostly Cloudy 80 26.7 72 22.2 76 76 Calm 30.06 1018 10 16 0.00 0.00
11:53 am 11:53 Mostly Sunny 81 27.2 72 22.2 74 74 Calm 30.06 1018 10 16 0.00 0.00
12:53 pm 12:53 Mostly Cloudy 84 28.9 72 22.2 67 67 NNE 3 6 30.05 1018 10 16 0.00 0.00
1:53 pm 13:53 Mostly Cloudy 86 30 71 21.7 61 61 Calm 30.04 1017 10 16 0.00 0.00
2:53 pm 14:53 Mostly Cloudy 87 30.6 71 21.7 59 59 Calm 30.03 1017 10 16 0.00 0.00
3:53 pm 15:53 Mostly Cloudy 91 32.8 70 21.1 50 50 NNW 5 7 30.01 1016 10 16 0.00 0.00
4:53 pm 16:53 Partly Cloudy 90 32.2 72 22.2 56 56 N 7 11 29.99 1016 10 16 0.00 0.00
5:53 pm 17:53 Mostly Cloudy 88 31.1 71 21.7 57 57 S 6 9 30.00 1016 10 16 0.00 0.00
6:07 pm 18:07 Mostly Cloudy 86 30 71 21.7 61 61 SE 7 11 30.00 1016 10 16 0.00 0.00
6:14 pm 18:14 Partly Cloudy with Nearby Thunderstorms 86 30 71 21.7 61 61 SE 7 11 30.00 1016 10 16 0.00 0.00
6:53 pm 18:53 Mostly Sunny 84 28.9 70 21.1 63 63 Calm 30.00 1016 10 16 0.00 0.00
7:53 pm 19:53 Cloudy with Light Rain 81 27.2 71 21.7 72 72 N 8 13 30.02 1017 7 11 0.00 0.00
8:10 pm 20:10 Cloudy with Thunderstorms 78 25.6 72 22.2 82 82 S 6 9 30.03 1017 3 5 0.04 1.02
8:24 pm 20:24 Cloudy with Strong Thunderstorms 74 23.3 68 20 82 82 SW 23 37 30.05 1018 2 3 0.15 3.81
8:37 pm 20:37 Mostly Cloudy with Thunderstorms 74 23.3 67 19.4 79 79 SSE 10 17 30.04 1017 3 5 0.25 6.35
8:43 pm 20:43 Cloudy with Nearby Thunderstorms 73 22.8 68 20 84 84 SSE 8 13 30.04 1017 9 14 0.25 6.35
8:53 pm 20:53 Cloudy with Nearby Thunderstorms 72 22.2 69 20.6 91 91 ENE 6 9 30.04 1017 6 10 0.28 7.11
9:07 pm 21:07 Partly Cloudy with Thunderstorms 73 22.8 70 21.1 90 90 VRB 3 6 30.05 1018 10 16 0.00 0.00
9:38 pm 21:38 Mostly Cloudy with Nearby Thunderstorms 75 23.9 69 20.6 82 82 N 14 22 30.07 1018 10 16 0.00 0.00
9:53 pm 21:53 Mostly Cloudy with Nearby Thunderstorms 74 23.3 69 20.6 85 85 NNE 8 13 30.07 1018 10 16 0.00 0.00
10:53 pm 22:53 Partly Cloudy with Nearby Thunderstorms 71 21.7 69 20.6 94 94 S 10 17 30.10 1019 10 16 0.00 0.00
11:03 pm 23:03 Partly Cloudy 71 21.7 69 20.6 94 94 SSE 3 6 30.11 1020 10 16 0.00 0.00
11:53 pm 23:53 Clear 72 22.2 70 21.1 94 94 Calm 30.08 1019 10 16 0.00 0.00

Powered by AerisWeather